Location: Campillo
(40.8621°N, 4.2488°W)
Time: 21:42:16
(UTC+00:00)

Cosmos 1633 Rocket - Pass Details

Date: 23 September 2021
Orbit: 607 x 623 km, 82.5° (Epoch: 23 October)

Event Time Altitude Azimuth Distance (km) Brightness Sun altitude
Rises 03:10:55 0° 1° (N) 2,913 6.9 -32.2°
Reaches altitude 10° 03:13:21 10° 12° (NNE) 2,001 6.1 -31.8°
Maximum altitude 03:17:22 33° 76° (ENE) 1,057 4.7 -31.2°
Enters shadow 03:17:22 33° 77° (ENE) 1,057 4.7 -31.2°
